[[{"header":{"parameterUnit":"m.s-1","parameterCategory":1,"la1":30.2991,"la2":30.254,"lo1":-89.0895,"lo2":-89.0444,"dy":0.0017,"dx":0.0017,"nx":28,"ny":28,"refTime":"2023-08-05T03:00:00:Z","depth":0,"parameterNumber":2,"parameterNumberName":"U-component_of_WINDS"},"data":[0,0,0,0,0,0,0,0,0,0,0,0,0,0,0,0,0,0,0,0,0,0,0,0,0,0,0,0,0,0,0,0,0,0,0,0,0,0,0,0,0,0,0,0,0,0,0,0,0,0,0,0,0,0,0,0,0,0,5.5404,5.5406,0,5.5579,5.5581,5.5583,5.5516,5.5512,5.5508,5.5504,5.5685,5.5693,5.5702,0,0,0,0,0,0,0,0,0,0,0,0,0,5.5013,5.5021,5.5404,5.5406,5.5408,5.5579,5.5581,5.5583,5.5517,5.5512,5.5507,5.5502,5.5682,5.5692,5.5702,0,0,0,0,0,0,0,0,0,0,0,0,0,5.5185,5.5023,5.5404,5.5396,5.5397,5.5578,5.5581,5.5584,5.5518,5.5512,5.5505,5.55,5.5679,5.5691,5.5704,5.5904,0,0,5.5743,5.5749,0,0,0,0,0,0,0,0,5.5175,5.52,5.5395,5.5396,5.5398,5.5519,5.5509,5.5691,5.5519,5.5472,5.5504,5.5497,5.5635,5.5651,5.5697,5.5913,5.5921,5.5744,5.5752,5.5758,5.5761,0,0,0,0,0,0,0,5.5164,5.5192,5.5473,5.5397,5.54,5.5383,5.5401,5.5544,5.5585,5.5475,5.5471,5.5492,5.5635,5.5685,5.5701,5.5923,5.5744,5.5755,5.5763,5.5768,5.631,5.6317,0,0,0,0,0,0,5.5151,5.5182,5.5468,5.5478,5.5269,5.5395,5.5415,5.5486,5.5583,5.5592,5.5497,5.5489,5.5666,5.5686,5.5707,5.5946,5.5758,5.577,5.5777,5.6304,5.6312,5.6319,0,0,0,0,0,0,5.5143,5.5177,5.5461,5.5329,5.5364,5.5409,5.5489,5.5493,5.5543,5.56,5.5607,5.5541,5.5662,5.5689,5.5855,5.5951,5.5775,5.5787,5.6296,5.6306,5.6315,5.6427,0,0,0,0,0,0,5.5132,5.5175,5.5251,5.5331,5.5371,5.5606,5.5495,5.5501,5.5565,5.5556,5.5643,5.5651,5.5659,5.5836,5.5868,5.5966,5.5797,5.6287,5.63,5.6312,5.6415,5.644,5.6461,0,0,0,0,0,5.5118,5.5277,5.5255,5.529,5.5468,5.5612,5.5635,5.564,5.5573,5.565,5.5687,5.5649,5.5936,5.5854,5.5889,5.5992,5.6281,5.6297,5.6311,5.6405,5.6435,5.646,0,0,0,0,0,0,5.5207,5.5287,5.5264,5.5453,5.5526,5.56,5.5697,5.5672,5.5765,5.5752,5.5755,5.5776,5.5947,5.5986,5.5893,5.619,5.6099,5.6121,5.6158,5.6187,5.621,5.6196,5.5808,0,0,0,0,0,5.5249,5.5359,5.5422,5.5583,5.5621,5.5653,5.5716,5.5713,5.5789,5.582,5.5868,5.5944,5.6051,5.6122,5.6223,5.6421,5.6438,5.6509,5.6532,5.6551,5.657,5.6676,5.6707,5.6368,5.6368,5.6368,0,0,5.5336,5.5393,5.5462,5.5602,5.5658,5.5772,5.568,5.5804,5.5888,5.5839,5.5998,5.6037,5.6121,5.6303,5.6386,5.6342,5.6668,5.657,5.6584,5.6594,5.6694,5.6726,5.6755,5.6378,5.6377,5.6375,0,0,5.5552,5.5607,5.5745,5.5803,5.5889,5.591,5.5943,5.6021,5.6044,5.6204,5.6169,5.627,5.6455,5.6515,5.6571,5.6809,5.6777,5.6843,5.6962,5.7065,5.7091,5.7115,5.7198,5.7228,5.6862,5.6862,5.6862,0,5.5649,5.5818,5.582,5.5947,5.6009,5.597,5.611,5.6166,5.6281,5.6325,5.6274,5.6504,5.6558,5.6753,5.6811,5.6858,5.6895,5.6832,5.7087,5.7111,5.7133,5.7212,5.7244,5.6869,5.6868,5.6868,5.6867,0,5.5933,5.6051,5.6153,5.6263,5.6337,5.647,5.6492,5.6567,5.6558,5.6584,5.6746,5.681,5.6923,5.697,5.6963,5.7164,5.7133,5.7085,5.6992,5.7172,5.7247,5.7277,5.688,5.6877,5.6875,5.6873,0,0,5.6209,5.6319,5.6356,5.6405,5.6496,5.6587,5.6719,5.6828,5.6891,5.6972,5.7081,5.7238,5.7194,5.7256,5.7256,5.7347,5.7529,5.7287,5.7289,5.7328,5.7752,5.7786,5.7821,5.7509,5.7515,5.7519,5.7744,0,5.6431,5.6659,5.6665,5.6874,5.6982,5.6946,5.706,5.7128,5.7156,5.7252,5.7283,5.7393,5.7327,5.7364,5.7452,5.7488,5.7614,5.7472,5.7609,5.7614,5.7587,5.786,5.7897,5.8106,5.7773,5.7778,5.7782,0,5.672,5.6808,5.7028,5.7102,5.7148,5.725,5.735,5.7443,5.7519,5.7533,5.7603,5.7589,5.7722,5.7626,5.7809,5.7713,5.777,5.7796,5.7804,5.7815,5.7707,5.7877,5.8173,5.8203,5.7828,5.7824,5.7821,0,5.6896,5.7071,5.7224,5.7268,5.7359,5.7431,5.7473,5.7543,5.7608,5.7696,5.7738,5.7841,5.7897,5.7977,5.7991,5.7921,5.8174,5.808,5.8188,5.8188,5.8242,5.8238,5.8549,5.8282,5.8282,5.8281,5.8281,0,5.7142,5.7278,5.7305,5.7399,5.755,5.7555,5.7704,5.7739,5.7803,5.7903,5.7879,5.7974,5.7987,5.8086,5.8098,5.8246,5.8273,5.8287,5.8288,5.8288,5.8285,5.8323,5.8308,5.829,5.8288,5.8286,5.8285,0,5.7364,5.7388,5.7553,5.7625,5.7646,5.7754,5.7816,5.7906,5.7931,5.8058,5.8088,5.8128,5.8242,5.8264,5.84,5.8408,5.8584,5.8572,5.8558,5.8555,5.8661,5.865,5.9005,5.9051,5.8757,5.876,5.8762,0,5.7518,5.7621,5.7704,5.7769,5.7814,5.792,5.7985,5.7994,5.8064,5.8158,5.8237,5.8348,5.8437,5.8622,5.8662,5.8766,5.8754,5.8872,5.877,5.8765,5.8753,5.8746,5.8755,5.8891,5.8894,5.8897,5.8899,0,5.7788,5.7795,5.789,5.799,5.8069,5.8148,5.8223,5.8278,5.8297,5.8376,5.8492,5.8562,5.8699,5.8809,5.8912,5.8955,5.893,5.8931,5.8961,5.896,5.8947,5.8953,5.8608,5.8922,5.892,5.8918,5.8917,5.8916,5.798,5.8069,5.8141,5.8247,5.8305,5.8375,5.8462,5.8498,5.8594,5.8706,5.8706,5.8832,5.8905,5.904,5.9089,5.9188,5.9151,5.9195,5.9206,5.9216,5.9225,5.8933,5.9207,5.9207,5.9206,5.9206,5.9205,0,5.8247,5.8291,5.8389,5.8494,5.8578,5.8547,5.8628,5.87,5.8811,5.8881,5.8969,5.9101,5.9208,5.9257,5.9362,5.9432,5.9423,5.9459,5.9453,5.9462,5.9253,5.9215,5.9464,5.9464,5.9464,5.9464,5.9464,5.9464,5.8395,5.8543,5.8558,5.8734,5.8778,5.89,5.8949,5.9014,5.9069,5.9218,5.9306,5.9337,5.9398,5.9507,5.9603,5.9615,5.9654,5.9695,5.9701,5.9504,5.9478,5.9452,5.9417,5.9704,5.9704,5.9901,5.9903,5.9905]},{"header":{"parameterUnit":"m.s-1","parameterCategory":1,"la1":30.2991,"la2":30.254,"lo1":-89.0895,"lo2":-89.0444,"dy":0.0017,"dx":0.0017,"nx":28,"ny":28,"refTime":"2023-08-05T03:00:00:Z","depth":0,"parameterNumber":3,"parameterNumberName":"V-component_of_WINDS"},"data":[0,0,0,0,0,0,0,0,0,0,0,0,0,0,0,0,0,0,0,0,0,0,0,0,0,0,0,0,0,0,0,0,0,0,0,0,0,0,0,0,0,0,0,0,0,0,0,0,0,0,0,0,0,0,0,0,0,0,1.402,1.4021,0,1.411,1.4111,1.4112,1.4114,1.4112,1.4111,1.411,1.42,1.4204,1.4207,0,0,0,0,0,0,0,0,0,0,0,0,0,1.3844,1.3847,1.402,1.4021,1.4022,1.411,1.4111,1.4113,1.4114,1.4112,1.4111,1.411,1.4199,1.4203,1.4207,0,0,0,0,0,0,0,0,0,0,0,0,0,1.3926,1.3848,1.4019,1.4033,1.4035,1.411,1.4111,1.4113,1.4114,1.4112,1.4111,1.4109,1.4198,1.4203,1.4208,1.4274,0,0,1.4224,1.4226,0,0,0,0,0,0,0,0,1.3921,1.3932,1.403,1.4032,1.4035,1.4099,1.4082,1.4167,1.4115,1.4084,1.411,1.4108,1.4168,1.4175,1.4196,1.4278,1.4282,1.4224,1.4227,1.423,1.4231,0,0,0,0,0,0,0,1.3915,1.3928,1.4055,1.4031,1.4034,1.4033,1.4043,1.4098,1.4134,1.4087,1.4087,1.4098,1.4169,1.4191,1.4198,1.4284,1.4224,1.4229,1.4232,1.4234,1.4423,1.4424,0,0,0,0,0,0,1.3907,1.3923,1.4052,1.4058,1.3973,1.4038,1.4049,1.408,1.4134,1.414,1.4099,1.4097,1.4183,1.4192,1.4201,1.4281,1.423,1.4235,1.4237,1.4421,1.4423,1.4425,0,0,0,0,0,0,1.3904,1.3919,1.4049,1.3991,1.4007,1.4043,1.4078,1.4083,1.4105,1.4143,1.4149,1.4116,1.4182,1.4194,1.4256,1.4285,1.4237,1.4242,1.4419,1.4421,1.4424,1.4443,0,0,0,0,0,0,1.3899,1.3918,1.3944,1.3992,1.4011,1.4103,1.408,1.4086,1.4114,1.4113,1.416,1.4166,1.4182,1.4248,1.4261,1.4291,1.4246,1.4416,1.442,1.4423,1.444,1.4446,1.4451,0,0,0,0,0,1.3892,1.3945,1.3945,1.3961,1.4045,1.4105,1.4116,1.4133,1.4117,1.4143,1.4167,1.4165,1.4279,1.4254,1.4269,1.4301,1.4414,1.4419,1.4423,1.4437,1.4445,1.4451,0,0,0,0,0,0,1.39,1.3952,1.3953,1.4023,1.406,1.4105,1.4139,1.414,1.4182,1.4179,1.4197,1.4208,1.4269,1.4291,1.4263,1.4367,1.4345,1.4352,1.435,1.4358,1.4363,1.4357,1.425,0,0,0,0,0,1.391,1.3955,1.3998,1.4056,1.4074,1.4103,1.413,1.414,1.4178,1.4194,1.4223,1.4259,1.4303,1.4331,1.4374,1.4442,1.4452,1.4471,1.4477,1.4481,1.4488,1.4524,1.4533,1.4439,1.4439,1.4439,0,0,1.3931,1.3965,1.3992,1.4058,1.4088,1.4133,1.4116,1.4166,1.4199,1.4201,1.4261,1.4283,1.4325,1.439,1.442,1.441,1.4515,1.4487,1.449,1.4494,1.4529,1.4538,1.4546,1.4442,1.4442,1.4441,0,0,1.3992,1.4023,1.4074,1.4104,1.4149,1.4168,1.418,1.4225,1.424,1.4301,1.4302,1.4342,1.4418,1.4447,1.4471,1.4542,1.4541,1.4555,1.4585,1.462,1.4627,1.4634,1.4658,1.4667,1.4561,1.4561,1.4561,0,1.4012,1.4082,1.41,1.4149,1.4178,1.4181,1.4232,1.426,1.4316,1.4335,1.4323,1.4417,1.4446,1.4517,1.4534,1.4554,1.4567,1.455,1.4625,1.4632,1.4638,1.4662,1.4671,1.4563,1.4562,1.4562,1.4562,0,1.4104,1.4153,1.4188,1.4243,1.4275,1.4325,1.4349,1.4379,1.4385,1.4405,1.4466,1.4499,1.4548,1.4566,1.4573,1.4638,1.463,1.4621,1.46,1.4648,1.4671,1.468,1.4565,1.4564,1.4564,1.4563,0,0,1.4175,1.4238,1.425,1.4275,1.4324,1.4361,1.441,1.4458,1.4483,1.4521,1.4562,1.4625,1.4617,1.4645,1.4655,1.4686,1.4738,1.4673,1.4674,1.4684,1.481,1.4816,1.4826,1.4737,1.4739,1.4741,1.4806,0,1.4241,1.433,1.4346,1.4423,1.4467,1.447,1.4513,1.4546,1.4565,1.4604,1.4624,1.4669,1.4655,1.4672,1.4703,1.4725,1.4764,1.4721,1.4774,1.4776,1.4764,1.4838,1.4845,1.4906,1.4815,1.4817,1.4818,0,1.4331,1.4372,1.4453,1.4495,1.4514,1.4552,1.4597,1.4635,1.4672,1.4683,1.4714,1.472,1.4769,1.4745,1.4812,1.4783,1.4805,1.4819,1.4822,1.4828,1.48,1.4845,1.4926,1.4935,1.4832,1.4831,1.483,0,1.4373,1.4448,1.4506,1.4527,1.4577,1.4604,1.4626,1.4662,1.469,1.4728,1.4746,1.479,1.4813,1.4846,1.4863,1.4844,1.4929,1.4906,1.4938,1.4938,1.4956,1.4955,1.5041,1.4971,1.4971,1.4971,1.4971,0,1.4446,1.4495,1.4526,1.4561,1.4616,1.4634,1.4687,1.4708,1.474,1.4779,1.4784,1.4819,1.484,1.4878,1.4891,1.4944,1.4955,1.4964,1.4967,1.4964,1.4963,1.4979,1.4975,1.4973,1.4973,1.4972,1.4972,0,1.4502,1.4525,1.4588,1.4631,1.4643,1.4681,1.4717,1.475,1.4769,1.4817,1.483,1.4858,1.4903,1.4923,1.4979,1.4987,1.5048,1.5048,1.5035,1.5036,1.5067,1.5064,1.5167,1.5181,1.5102,1.5103,1.5103,0,1.4547,1.4585,1.4632,1.4658,1.4681,1.4724,1.4752,1.477,1.4799,1.4844,1.4872,1.4917,1.4955,1.5026,1.5051,1.5093,1.5094,1.5127,1.51,1.5095,1.5093,1.5091,1.5094,1.5132,1.5133,1.5133,1.5134,0,1.4624,1.4633,1.4674,1.4719,1.4752,1.4788,1.4823,1.4844,1.4867,1.4899,1.4945,1.4974,1.5031,1.5075,1.5119,1.5139,1.514,1.5142,1.5151,1.5148,1.5139,1.5144,1.5048,1.5139,1.5139,1.5138,1.5138,1.5138,1.4676,1.471,1.4747,1.4792,1.482,1.4852,1.4886,1.4908,1.4948,1.4996,1.5004,1.5053,1.5087,1.5146,1.5168,1.5206,1.5198,1.5212,1.5215,1.5218,1.522,1.5134,1.5214,1.5214,1.5214,1.5213,1.5213,0,1.4753,1.4777,1.4818,1.4867,1.4901,1.49,1.4938,1.4966,1.501,1.5043,1.508,1.5132,1.5175,1.5202,1.5245,1.527,1.5271,1.528,1.5279,1.5283,1.5225,1.5213,1.5279,1.5279,1.5279,1.5279,1.5279,1.5279,1.4797,1.4853,1.4866,1.4936,1.4959,1.5008,1.503,1.5059,1.5085,1.5144,1.518,1.5198,1.5228,1.5272,1.5311,1.5318,1.5333,1.5343,1.5349,1.5294,1.5287,1.5281,1.5269,1.5346,1.5346,1.5403,1.5404,1.5404]}]]